Weather History for Danville, VA

Change the Weather History Date:

Sunday, March 10, 2013

  Actual Average Record
Temperature  
Mean Temperature 49 °F 47 °F  
Max Temperature 69 °F 57 °F 82 °F (1974)
Min Temperature 28 °F 36 °F 16 °F (1996)
Degree Days  
Heating Degree Days 16 18  
Month to date heating degree days 237 197  
Since 1 July heating degree days 3032 3198  
Cooling Degree Days 0 0  
Month to date cooling degree days 0 0  
Year to date cooling degree days 2 0  
Moisture  
Dew Point 26 °F    
Average Humidity 53    
Maximum Humidity 85    
Minimum Humidity 21    
Precipitation  
Precipitation 0.00 in 0.11 in 0.94 in (1978)
Month to date precipitation 0.72 1.08  
Year to date precipitation 10.53 7.51  
Snow  
Snow 0.00 in - - ()
Month to date snowfall T  
Since 1 July snowfall 1.7  
Snow Depth 0.00 in    
Sea Level Pressure  
Sea Level Pressure 30.24 in    
Wind  
Wind Speed 2 mph (South)    
Max Wind Speed 8 mph    
Max Gust Speed -    
Visibility 10 miles    
Events      
T = Trace of Precipitation, MM = Missing Value Source: NWS Daily Summary

Daily Weather History Graph

Daily Weather History Graph

Search for Another Location

Airport:

Trip Planner

Search our weather history database for the weather conditions in past years. The results will help you decide how hot, cold, wet, or windy it might be!

Date:

Astronomy

Mar. 10, 2013 Rise Set
Actual Time 7:35 AM EDT 7:20 PM EDT
Civil Twilight 7:09 AM EDT 7:46 PM EDT
Nautical Twilight 6:39 AM EDT 8:16 PM EDT
Astronomical Twilight 6:09 AM EDT 8:46 PM EDT
Moon 6:33 AM EDT (3/10) 6:26 PM EDT (3/10)
Length of Visible Light 12h 36m
Length of Day
11h 45m
Waning Crescent, 2% of the Moon is Illuminated
Mar 10
Waning Crescent
Mar 11
New
Mar 19
First Quarter
Mar 27
Full
Apr 3
Last Quarter

Hourly Weather History & Observations

Time (EDT) Temp. Dew Point Humidity Pressure Visibility Wind Dir Wind Speed Gust Speed Precip Events Conditions
12:53 AM 34.0 °F 27.0 °F 75% 30.29 in 10.0 mi Calm Calm - N/A   Clear
1:53 AM 33.1 °F 26.1 °F 75% 30.28 in 10.0 mi Calm Calm - N/A   Clear
3:53 AM 32.0 °F 26.1 °F 79% 30.27 in 10.0 mi Calm Calm - N/A   Clear
4:53 AM 30.0 °F 26.1 °F 85% 30.26 in 10.0 mi Calm Calm - N/A   Clear
5:53 AM 30.9 °F 25.0 °F 79% 30.26 in 10.0 mi Calm Calm - N/A   Clear
6:53 AM 28.9 °F 25.0 °F 85% 30.28 in 10.0 mi Calm Calm - N/A   Clear
8:53 AM 36.0 °F 28.0 °F 73% 30.29 in 10.0 mi Calm Calm - N/A   Clear
9:53 AM 45.0 °F 30.0 °F 56% 30.31 in 10.0 mi Calm Calm - N/A   Clear
10:53 AM 52.0 °F 30.0 °F 43% 30.31 in 10.0 mi SW 3.5 mph - N/A   Clear
11:53 AM 57.9 °F 30.0 °F 35% 30.28 in 10.0 mi Variable 3.5 mph - N/A   Clear
12:53 PM 62.1 °F 28.9 °F 29% 30.27 in 10.0 mi Calm Calm - N/A   Clear
1:53 PM 64.9 °F 28.0 °F 25% 30.24 in 10.0 mi SW 8.1 mph - N/A   Clear
2:53 PM 66.9 °F 28.9 °F 24% 30.21 in 10.0 mi Calm Calm - N/A   Clear
3:53 PM 68.0 °F 28.0 °F 22% 30.19 in 10.0 mi Variable 3.5 mph - N/A   Clear
4:53 PM 68.0 °F 27.0 °F 21% 30.18 in 10.0 mi ESE 8.1 mph - N/A   Clear
5:53 PM 66.9 °F 27.0 °F 22% 30.18 in 10.0 mi Variable 4.6 mph - N/A   Clear
6:53 PM 64.0 °F 27.0 °F 25% 30.20 in 10.0 mi South 3.5 mph - N/A   Clear
7:53 PM 61.0 °F 26.1 °F 26% 30.19 in 10.0 mi SE 4.6 mph - N/A   Clear
8:53 PM 57.9 °F 25.0 °F 28% 30.20 in 10.0 mi Calm Calm - N/A   Clear
9:53 PM 57.0 °F 23.0 °F 27% 30.21 in 10.0 mi Variable 3.5 mph - N/A   Clear
10:53 PM 54.0 °F 21.9 °F 29% 30.21 in 10.0 mi South 3.5 mph - N/A   Clear
11:53 PM 52.0 °F 21.9 °F 31% 30.20 in 10.0 mi South 3.5 mph - N/A   Clear
12:53 AM 53.1 °F 19.9 °F 27% 30.19 in 10.0 mi Variable 3.5 mph - N/A   Clear